User: anonymous   Login
Location: B
(0.0000°N, 0.0000°E)
Time: 02:00:11
(UTC+02:00)
Language:

Cosmos 1025 Rocket - Orbit

View from above orbital plane
View from above orbital plane
View from above satellite
View from above satellite

Ground track
Ground track

The orbit data is extracted from the following two-line orbital elements,

1 10974U 78067B   16270.08298028  .00000167  00000-0  15742-4 0  9999
2 10974  82.4813  59.3128 0018535 135.1420 225.1299 14.87182609 68308
Epoch (UTC): 26 September 2016 01:59:29
Eccentricity: 0.0018535
inclination: 82.4813°
perigee height: 594 km
apogee height: 619 km
right ascension of ascending node: 59.3128°
argument of perigee: 135.1420°
revolutions per day: 14.87182609
mean anomaly at epoch: 225.1299°
orbit number at epoch: 6830

The dashed part of the orbit path shows where the satellite is in the earth's shadow,  

DLR